D2913 Weather Reports


time (UTC)temp
C
wind
direction
speed
KPH
gust
KPH
rain 1hr
cm
rain 24hr
cm
rain mn
cm
humidity
%
barometer
mb
20260506002016 10 0 0.0 0.0 0.00 0.15 0.00 90 1007.2
20260506001516 10 0 0.0 0.0 0.00 0.15 0.00 90 1007.2
20260506001016 10 0 0.0 0.0 0.00 0.15 0.00 91 1007.2
20260506000517 10 0 0.0 0.0 0.00 0.15 0.00 91 1007.4
20260505235017 10 0 0.0 0.0 0.00 0.15 0.00 90 1007.5
20260505234017 10 0 0.0 0.0 0.00 0.15 0.00 90 1007.4
20260505233517 10 0 0.0 0.0 0.00 0.15 0.00 90 1007.4
20260505233016 10 0 0.0 0.0 0.00 0.15 0.00 90 1007.5
20260505232524 10 0 0.0 0.0 0.00 0.15 0.00 90 1007.6
20260505230517 10 0 0.0 0.0 0.00 0.15 0.00 90 1007.7
20260505230016 10 0 0.0 0.0 0.00 0.15 0.00 90 1007.7
20260505225516 10 0 0.0 0.0 0.00 0.15 0.00 90 1007.7
20260505225016 11 0 0.0 0.0 0.00 0.15 0.00 90 1007.7
20260505224517 11 0 0.0 0.0 0.00 0.15 0.00 90 1007.8
20260505224016 11 0 0.0 0.0 0.00 0.15 0.00 89 1007.8
20260505223516 10 0 0.0 0.0 0.00 0.15 0.00 89 1007.8
20260505222516 10 0 0.0 0.0 0.00 0.15 0.00 90 1007.8
20260505222016 10 0 0.0 0.0 0.00 0.15 0.00 90 1007.8
20260505221516 11 0 0.0 0.0 0.00 0.15 0.00 90 1007.8
20260505220516 11 0 0.0 0.0 0.00 0.15 0.00 90 1007.9
20260505220016 11 0 0.0 0.0 0.00 0.15 0.15 90 1007.9
20260505215517 11 0 0.0 0.0 0.00 0.15 0.15 90 1007.9
20260505215016 11 0 0.0 0.0 0.00 0.18 0.15 90 1007.8
20260505214516 11 0 0.0 0.0 0.00 0.18 0.15 90 1007.9
20260505214016 11 0 0.0 0.0 0.00 0.18 0.15 90 1007.9
20260505213516 11 0 0.0 0.0 0.00 0.18 0.15 90 1007.9
20260505213017 11 0 0.0 0.0 0.00 0.18 0.15 90 1007.9
20260505212517 11 0 0.0 0.0 0.00 0.18 0.15 91 1008.1
20260505212017 11 0 0.0 0.0 0.00 0.18 0.15 91 1008.0
20260505211516 11 0 0.0 0.0 0.00 0.18 0.15 91 1007.9
20260505211017 12 0 0.0 0.0 0.00 0.18 0.15 91 1007.8
20260505210517 12 0 0.0 0.0 0.00 0.18 0.15 91 1008.0
20260505210016 12 0 0.0 0.0 0.00 0.18 0.15 91 1008.0
20260505205016 12 0 0.0 0.0 0.00 0.18 0.15 91 1008.4
20260505204516 12 0 0.0 0.0 0.00 0.18 0.15 90 1008.3
20260505204016 12 0 0.0 0.0 0.00 0.18 0.15 90 1008.4
20260505203517 12 0 0.0 0.0 0.00 0.20 0.15 90 1008.4
20260505203016 13 0 0.0 0.0 0.00 0.20 0.15 90 1008.5
20260505202517 13 0 0.0 0.0 0.00 0.20 0.15 90 1008.5
20260505202017 13 0 0.0 0.0 0.00 0.20 0.15 90 1008.5
20260505201516 13 0 0.0 0.0 0.00 0.20 0.15 90 1008.6
20260505201016 13 0 0.0 0.0 0.00 0.20 0.15 91 1008.8
20260505200016 13 0 0.0 0.0 0.00 0.20 0.15 89 1008.4
20260505195517 13 0 0.0 0.0 0.00 0.20 0.15 89 1008.2
20260505195016 13 0 0.0 0.0 0.00 0.20 0.15 89 1008.1
20260505193516 13 0 0.0 0.0 0.00 0.20 0.15 90 1007.9
20260505192517 13 0 0.0 0.0 0.00 0.23 0.15 90 1007.5
20260505192017 13 0 0.0 0.0 0.00 0.23 0.15 90 1007.5
20260505191517 13 0 0.0 0.0 0.03 0.23 0.15 90 1007.4
20260505191016 13 0 0.0 0.0 0.03 0.23 0.15 90 1007.5
20260505190516 13 0 0.0 0.0 0.03 0.23 0.15 90 1007.4
20260505190016 13 0 0.0 0.0 0.03 0.23 0.15 90 1007.2
20260505185516 13 0 0.0 0.0 0.03 0.23 0.15 90 1007.2
20260505185016 13 0 0.0 0.0 0.03 0.23 0.15 90 1007.1
20260505184516 13 0 0.0 0.0 0.03 0.23 0.15 89 1006.9
20260505184016 13 0 0.0 0.0 0.03 0.23 0.15 89 1006.9
20260505183516 13 0 0.0 0.0 0.03 0.25 0.15 89 1006.7
20260505183017 13 0 0.0 0.0 0.03 0.25 0.15 88 1006.8
20260505182517 13 0 0.0 0.0 0.03 0.28 0.15 88 1006.7
20260505182016 13 0 0.0 0.0 0.03 0.28 0.15 88 1006.6
20260505181516 14 0 0.0 0.0 0.00 0.30 0.15 89 1006.5
20260505181016 14 0 0.0 0.0 0.00 0.30 0.15 89 1006.5
20260505180517 14 0 0.0 0.0 0.03 0.30 0.15 90 1006.4
20260505180016 14 0 0.0 0.0 0.03 0.30 0.15 90 1006.4
20260505175017 15 0 0.0 0.0 0.03 0.30 0.15 90 1006.3
20260505174516 15 0 0.0 0.0 0.03 0.30 0.15 90 1006.3
20260505174016 15 0 0.0 0.0 0.03 0.30 0.15 90 1006.4
20260505173516 15 0 0.0 0.0 0.03 0.30 0.15 90 1006.5
20260505173017 15 0 0.0 0.0 0.03 0.30 0.15 90 1006.4
20260505172517 15 0 0.0 0.0 0.03 0.30 0.15 90 1006.4
20260505172017 15 0 0.0 0.0 0.03 0.30 0.15 90 1006.5
20260505171516 15 0 0.0 0.0 0.03 0.30 0.15 90 1006.4
20260505171016 15 0 0.0 0.0 0.03 0.30 0.15 90 1006.6
20260505170516 15 0 0.0 0.0 0.00 0.28 0.13 90 1006.5
20260505170017 15 0 0.0 0.0 0.00 0.28 0.13 90 1006.6
20260505165516 15 0 0.0 0.0 0.00 0.28 0.13 89 1006.6
20260505165017 15 0 0.0 0.0 0.00 0.28 0.13 88 1006.8
20260505164516 15 0 0.0 0.0 0.00 0.28 0.13 88 1006.9
20260505164016 15 0 0.0 0.0 0.00 0.28 0.13 87 1006.8
20260505163516 16 0 0.0 0.0 0.00 0.28 0.13 87 1006.8
20260505163017 16 0 0.0 0.0 0.00 0.28 0.13 86 1006.8
20260505162516 16 0 0.0 0.0 0.00 0.28 0.13 86 1006.9
20260505161516 16 0 0.0 0.0 0.00 0.28 0.13 85 1006.9
20260505161016 16 0 0.0 0.0 0.00 0.28 0.13 85 1006.8
20260505160516 16 0 0.0 0.0 0.00 0.28 0.13 84 1006.7
20260505153017 17 0 0.0 0.0 0.00 0.28 0.13 82 1006.9
20260505152517 17 0 0.0 0.0 0.00 0.28 0.13 83 1006.8
20260505152016 17 0 0.0 0.0 0.00 0.28 0.13 82 1006.8
20260505151516 17 0 0.0 0.0 0.00 0.28 0.13 82 1006.8
20260505151016 17 0 0.0 0.0 0.00 0.28 0.13 83 1006.9
20260505150516 17 0 0.0 0.0 0.00 0.28 0.13 83 1006.8
20260505140517 16 0 0.0 0.0 0.00 0.28 0.13 87 1006.8
20260505125017 18 0 0.0 0.0 0.00 0.28 0.13 79 1007.3
20260505124517 18 0 0.0 0.0 0.00 0.28 0.13 81 1007.3
20260505124016 18 0 0.0 0.0 0.00 0.28 0.13 82 1007.2
20260505123516 18 0 0.0 0.0 0.00 0.28 0.13 83 1007.1
20260505123017 18 0 0.0 0.0 0.00 0.28 0.13 84 1007.3
20260505122517 18 0 0.0 0.0 0.00 0.28 0.13 84 1007.3
20260505121516 19 0 0.0 0.0 0.00 0.28 0.13 82 1007.4
20260505121017 20 0 0.0 0.0 0.00 0.28 0.13 81 1007.6
20260505120516 20 0 0.0 0.0 0.00 0.28 0.13 79 1007.6
20260505115016 20 0 0.0 0.0 0.00 0.28 0.13 78 1007.8
20260505114516 20 0 0.0 0.0 0.00 0.28 0.13 78 1007.8
20260505114017 20 0 0.0 0.0 0.00 0.28 0.13 78 1007.8
20260505113517 20 0 0.0 0.0 0.00 0.28 0.13 77 1007.8
20260505113016 20 0 0.0 0.0 0.00 0.28 0.13 81 1007.8
20260505112516 20 0 0.0 0.0 0.00 0.28 0.13 79 1007.8
20260505112017 20 0 0.0 0.0 0.00 0.28 0.13 81 1007.7
20260505111517 20 0 0.0 0.0 0.00 0.28 0.13 81 1007.8
20260505111016 20 0 0.0 0.0 0.00 0.28 0.13 80 1007.7
20260505102016 18 0 0.0 0.0 0.00 0.28 0.13 83 1007.6
20260505101516 18 0 0.0 0.0 0.00 0.28 0.13 83 1007.6
20260505101017 18 0 0.0 0.0 0.00 0.28 0.13 83 1007.6
20260505100016 18 0 0.0 0.0 0.00 0.28 0.13 85 1007.7
20260505095016 19 0 0.0 0.0 0.03 0.28 0.13 83 1008.0
20260505094516 19 0 0.0 0.0 0.03 0.28 0.13 83 1008.0
20260505094016 19 0 0.0 0.0 0.03 0.28 0.13 83 1008.2
20260505093517 19 0 0.0 0.0 0.03 0.28 0.13 82 1008.2
20260505093016 20 0 0.0 0.0 0.03 0.28 0.13 82 1008.2
20260505092516 20 0 0.0 0.0 0.03 0.28 0.13 83 1008.3
20260505092017 19 0 0.0 0.0 0.03 0.28 0.13 83 1008.3
20260505091517 19 0 0.0 0.0 0.03 0.28 0.13 86 1008.3
20260505091016 18 0 0.0 0.0 0.03 0.28 0.13 86 1008.3
20260505090517 18 0 0.0 0.0 0.03 0.28 0.13 85 1008.2
20260505090016 18 0 0.0 0.0 0.03 0.28 0.13 87 1008.1
20260505085516 17 0 0.0 0.0 0.00 0.25 0.10 86 1008.2
20260505084516 18 0 0.0 0.0 0.00 0.25 0.10 86 1008.3
20260505084016 18 0 0.0 0.0 0.00 0.25 0.10 84 1008.5
20260505083517 18 0 0.0 0.0 0.00 0.25 0.10 87 1008.4
20260505083016 17 0 0.0 0.0 0.00 0.25 0.10 87 1008.2
20260505082516 17 0 0.0 0.0 0.00 0.25 0.10 88 1008.2
20260505082017 16 0 0.0 0.0 0.00 0.25 0.10 88 1008.2
20260505081517 16 0 0.0 0.0 0.00 0.25 0.10 89 1008.3
20260505080517 16 0 0.0 0.0 0.00 0.25 0.10 89 1008.3
20260505080016 16 0 0.0 0.0 0.00 0.25 0.10 90 1008.2
20260505075517 16 0 0.0 0.0 0.00 0.25 0.10 89 1008.2
20260505075016 16 0 0.0 0.0 0.00 0.25 0.10 89 1008.2
20260505074516 16 0 0.0 0.0 0.03 0.25 0.10 90 1008.4
20260505074016 15 0 0.0 0.0 0.03 0.25 0.10 91 1008.2
20260505073516 15 0 0.0 0.0 0.03 0.25 0.10 91 1008.1
20260505073016 14 0 0.0 0.0 0.03 0.25 0.10 91 1008.1
20260505072516 14 0 0.0 0.0 0.03 0.25 0.10 91 1008.2
20260505072016 14 0 0.0 0.0 0.03 0.25 0.10 91 1008.3
20260505071516 13 0 0.0 0.0 0.03 0.25 0.10 90 1008.2
20260505070516 13 0 0.0 0.0 0.03 0.25 0.10 89 1008.1
20260505070017 13 0 0.0 0.0 0.03 0.25 0.10 89 1008.2
20260505065517 13 0 0.0 0.0 0.03 0.25 0.10 88 1008.1
20260505065016 12 0 0.0 0.0 0.00 0.23 0.08 86 1008.1
20260505064516 12 0 0.0 0.0 0.00 0.23 0.08 85 1008.1
20260505064016 12 0 0.0 0.0 0.00 0.23 0.08 81 1007.9
20260505063516 11 0 0.0 0.0 0.00 0.23 0.08 77 1007.7
20260505063016 11 0 0.0 0.0 0.00 0.23 0.08 73 1007.7
20260505062516 11 0 0.0 0.0 0.00 0.23 0.08 70 1007.7
20260505062016 10 0 0.0 0.0 0.00 0.23 0.08 69 1007.6
20260505061517 10 0 0.0 0.0 0.00 0.23 0.08 67 1007.7
20260505061017 10 0 0.0 0.0 0.00 0.23 0.08 67 1007.5
20260505060516 10 0 0.0 0.0 0.00 0.23 0.08 66 1007.4
20260505055516 10 0 0.0 0.0 0.00 0.23 0.08 66 1007.4
20260505055016 9 0 0.0 0.0 0.00 0.23 0.08 66 1007.4
20260505054516 9 0 0.0 0.0 0.00 0.23 0.08 66 1007.3
20260505054016 8 0 0.0 0.0 0.00 0.23 0.08 66 1007.2
20260505053517 8 0 0.0 0.0 0.00 0.23 0.08 66 1006.9
20260505052544 7 0 0.0 0.0 0.00 0.23 0.08 67 1006.6
20260505052016 7 0 0.0 0.0 0.03 0.23 0.08 67 1006.6
20260505051516 7 0 0.0 0.0 0.03 0.23 0.08 68 1006.6
20260505051016 6 0 0.0 0.0 0.03 0.23 0.08 68 1006.6
20260505050516 6 0 0.0 0.0 0.03 0.23 0.08 68 1006.7
20260505041016 5 0 0.0 0.0 0.00 0.23 0.05 71 1006.5
20260505040517 5 0 0.0 0.0 0.00 0.23 0.05 71 1006.5
20260505040017 5 0 0.0 0.0 0.00 0.23 0.05 71 1006.6
20260505035516 6 0 0.0 0.0 0.00 0.23 0.05 71 1006.6
20260505035017 6 0 0.0 0.0 0.00 0.23 0.05 71 1006.7
20260505034516 6 0 0.0 0.0 0.00 0.23 0.05 70 1006.6
20260505034016 6 0 0.0 0.0 0.00 0.23 0.05 70 1006.6
20260505033516 6 0 0.0 0.0 0.00 0.23 0.05 71 1006.7
20260505033017 6 0 0.0 0.0 0.00 0.23 0.05 70 1006.8
20260505032516 6 0 0.0 0.0 0.00 0.23 0.05 71 1006.7
20260505032016 6 0 0.0 0.0 0.00 0.23 0.05 71 1006.6
20260505031520 6 0 0.0 0.0 0.00 0.23 0.05 72 1006.7
20260505030017 6 0 0.0 0.0 0.03 0.23 0.05 71 1006.9
20260505025016 6 0 0.0 0.0 0.03 0.23 0.05 71 1007.2
20260505024016 6 0 0.0 0.0 0.03 0.23 0.05 70 1007.2
20260505023516 6 0 0.0 0.0 0.03 0.23 0.05 71 1007.3
20260505023017 6 0 0.0 0.0 0.03 0.23 0.05 72 1007.4
20260505022517 6 0 0.0 0.0 0.03 0.23 0.05 72 1007.4
20260505022016 6 0 0.0 0.0 0.03 0.23 0.05 73 1007.5
20260505021016 7 0 0.0 0.0 0.03 0.23 0.05 73 1007.7
20260505020516 7 0 0.0 0.0 0.00 0.20 0.05 72 1007.8
20260505020016 7 0 0.0 0.0 0.00 0.20 0.05 72 1007.7
20260505015516 7 0 0.0 0.0 0.00 0.20 0.05 72 1007.7
20260505015016 7 0 0.0 0.0 0.00 0.20 0.05 71 1007.8
20260505014516 7 0 0.0 0.0 0.00 0.20 0.05 72 1007.7
20260505014016 7 0 0.0 0.0 0.00 0.20 0.05 73 1007.7
20260505013517 7 0 0.0 0.0 0.03 0.20 0.05 74 1007.7
20260505013016 7 0 0.0 0.0 0.03 0.20 0.05 74 1007.9
20260505012516 7 0 0.0 0.0 0.03 0.20 0.05 73 1007.8
20260505012017 8 0 0.0 0.0 0.03 0.20 0.05 73 1008.1
20260505011532 8 0 0.0 0.0 0.03 0.20 0.05 73 1008.0
20260505011016 8 0 0.0 0.0 0.03 0.20 0.05 73 1008.0
20260505010517 8 0 0.0 0.0 0.03 0.20 0.05 73 1008.0
20260505010016 8 0 0.0 0.0 0.03 0.20 0.05 73 1008.0
20260505005516 8 0 0.0 0.0 0.03 0.20 0.05 73 1008.0
20260505004517 8 0 0.0 0.0 0.03 0.20 0.05 75 1008.2
20260505004017 8 0 0.0 0.0 0.03 0.20 0.05 76 1008.2
20260505003017 8 0 0.0 0.0 0.00 0.18 0.03 74 1008.5
20260505002516 8 0 0.0 0.0 0.00 0.18 0.03 74 1008.4